This is the latest recevied weather packets stored in our database for station/object KB4MOX. If no packets are shown the sender has not sent any weather packets the latest 10 day(s).
| Time | Temp. | Humidity | Pressure | Rain* | Wind** | Luminosity | Snow |
|---|---|---|---|---|---|---|---|
| 1787758993 | 28.89° C | 67% | 1018.5 hPa | 0 mm | - | 720 W/m² | - |
| 1787758687 | 27.78° C | 69% | 1018.6 hPa | 0 mm | - | 357 W/m² | - |
| 1787758383 | 28.33° C | 68% | 1018.7 hPa | 0 mm | - | 137 W/m² | - |
| 1787758081 | 28.33° C | 67% | 1018.6 hPa | 0 mm | - | 250 W/m² | - |
| 1787757778 | 28.89° C | 67% | 1018.6 hPa | 0 mm | - | 283 W/m² | - |
| 1787757477 | 28.33° C | 68% | 1018.6 hPa | 0 mm | - | 122 W/m² | - |
| 1787757172 | 27.78° C | 70% | 1018.5 hPa | 0 mm | - | 130 W/m² | - |
| 1787756870 | 27.22° C | 71% | 1018.4 hPa | 0 mm | - | 145 W/m² | - |
| 1787756567 | 27.22° C | 71% | 1018.3 hPa | 0 mm | - | 105 W/m² | - |
| 1787756265 | 27.22° C | 71% | 1018.5 hPa | 0 mm | - | 116 W/m² | - |
| 1787755961 | 27.22° C | 72% | 1018.5 hPa | 0 mm | - | 85 W/m² | - |
| 1787755660 | 27.22° C | 72% | 1018.3 hPa | 0 mm | - | 80 W/m² | - |
| 1787755356 | 27.22° C | 73% | 1018.4 hPa | 0 mm | - | 85 W/m² | - |
| 1787755054 | 26.67° C | 73% | 1018.4 hPa | 0 mm | - | 113 W/m² | - |
| 1787754749 | 26.67° C | 75% | 1018.4 hPa | 0 mm | - | 119 W/m² | - |
| 1787754447 | 26.11° C | 75% | 1018.4 hPa | 0 mm | - | 281 W/m² | - |
| 1787754142 | 26.11° C | 76% | 1018.4 hPa | 0 mm | - | 88 W/m² | - |
| 1787753836 | 26.11° C | 76% | 1018.4 hPa | 0 mm | - | 65 W/m² | - |
| 1787753535 | 26.11° C | 75% | 1018.3 hPa | 0 mm | - | 70 W/m² | - |
| 1787753228 | 25.56° C | 78% | 1018.3 hPa | 0 mm | - | 75 W/m² | - |
| 1787752924 | 25.56° C | 78% | 1018.4 hPa | 0 mm | - | 83 W/m² | - |
| 1787752622 | 25.56° C | 79% | 1018.6 hPa | 0 mm | - | 66 W/m² | - |
| 1787752319 | 25° C | 80% | 1018.5 hPa | 0 mm | - | 66 W/m² | - |
| 1787752017 | 25° C | 82% | 1018.6 hPa | 0 mm | - | 96 W/m² | - |
| 1787751712 | 24.44° C | 83% | 1018.6 hPa | 0 mm | - | 68 W/m² | - |
* Rain latest hour (hover to see other rain measurements)
** Current wind speed in m/s (hover to see current wind gust speed)